Temperature
19 19 19 19 19 19 19 19 19 19 19 19 19 19 19 19 19 19 19 19 19 19 19 19 19 19 19 19 19 19 19 19 19 19 19 19 19 19 19 18 18 18 18
19 19 19 19 19 19 19 18 19 18 18 18 18 19 19 19 19 19 19 19 19 19 19 19 19 18 19 19 19 19 19 19 19 19 18 18 18 18 19 18 18 18 18
19 19 19 19 19 19 18 18 18 18 18 18 18 18 18 18 18 18 18 19 19 19 19 19 19 19 19 19 19 19 19 19 19 18 18 18 18 18 18 18 18 18 18
19 18 19 19 18 18 18 18 18 18 18 18 18 18 18 18 18 18 18 18 18 18 18 18 18 18 19 19 19 19 19 19 18 18 18 18 18 18 18 18 18 18 18
18 18 18 18 18 18 18 18 18 18 18 18 18 18 18 18 18 18 18 18 18 18 18 18 18 18 18 18 18 19 19 18 18 18 18 18 18 18 18 18 18 18 18
18 18 18 18 18 18 18 18 18 18 18 18 18 18 18 18 18 18 18 18 18 18 18 18 18 18 18 18 18 18 18 18 18 18 18 18 18 18 18 18 18 18 18
18 18 18 18 18 18 18 18 18 17 17 17 17 17 17 17 17 18 18 18 18 18 18 18 18 18 18 18 18 18 18 18 18 18 18 18 18 18 18 18 18 18 18
18 18 18 18 18 18 18 17 17 17 17 17 17 17 17 17 17 17 17 17 17 17 17 17 18 18 18 18 18 18 18 18 18 18 18 18 18 18 18 18 18 18 18
19 18 18 18 18 17 17 17 17 17 17 17 17 17 17 17 17 17 17 17 17 17 17 17 17 18 18 18 18 18 18 18 18 18 18 18 18 18 18 18 18 18 18
19 19 18 18 17 17 17 17 17 16 16 16 16 16 16 16 16 16 16 16 16 17 17 17 17 17 17 17 18 18 18 18 18 18 18 18 18 18 18 18 18 18 18
19 19 19 18 18 17 17 17 16 16 16 16 16 16 16 16 16 16 16 16 16 16 16 17 17 17 17 17 17 18 18 18 18 18 18 18 18 18 18 18 18 18 18
19 19 19 18 18 18 17 17 16 16 16 16 15 15 15 15 16 16 16 16 16 16 16 16 16 17 17 17 17 17 18 18 18 18 17 17 18 18 18 18 18 18 18
20 19 19 19 18 18 17 17 16 16 16 16 15 15 15 15 15 15 15 15 15 16 16 16 16 16 17 17 17 17 17 17 18 17 17 17 18 18 18 18 18 18 18
20 19 19 19 18 18 17 17 17 16 16 16 15 15 15 15 15 15 15 15 15 15 16 16 16 16 16 16 16 17 17 17 17 17 17 17 18 18 18 18 18 18 18
20 19 19 18 18 18 17 17 17 16 16 16 15 15 15 15 15 15 15 15 15 15 15 15 15 16 16 16 16 16 17 17 17 17 17 17 18 18 18 18 18 18 18
20 19 19 18 18 17 17 17 16 16 16 16 15 15 15 15 15 15 15 15 15 15 15 15 15 15 16 16 16 16 16 16 17 17 17 17 17 18 18 18 18 18 18
20 20 19 18 17 17 16 16 16 16 16 15 15 15 15 15 14 14 14 14 15 15 15 15 15 15 15 16 16 16 16 16 17 17 17 17 17 17 18 18 18 18 18
20 20 19 18 17 17 16 16 16 16 15 15 15 15 14 14 14 14 14 14 14 14 14 15 15 15 15 15 16 16 16 16 16 17 17 17 17 17 17 18 18 18 18
20 20 19 18 17 16 16 16 15 15 15 15 15 14 14 14 14 14 14 14 14 14 14 14 14 15 15 15 15 16 16 16 16 16 17 17 17 17 17 18 18 18 18
20 19 19 18 17 16 16 16 15 15 15 15 14 14 14 13 13 13 14 14 14 14 14 14 14 14 15 15 15 15 16 16 16 16 17 17 17 17 17 17 18 18 18
20 19 19 18 17 16 16 15 15 15 15 15 14 14 13 13 13 13 13 13 13 13 13 14 14 14 14 15 15 15 16 16 16 16 17 17 17 17 17 17 17 17 18
20 19 19 18 17 16 16 15 15 15 15 15 14 14 13 13 13 13 13 13 13 13 13 13 13 14 14 14 14 15 15 16 16 16 17 17 17 17 17 17 17 17 17
20 19 19 18 17 16 15 15 15 15 15 14 14 14 13 13 13 13 13 13 13 13 13 13 13 14 14 14 14 14 15 15 16 16 16 16 17 17 17 17 17 17 17
20 19 18 17 17 16 15 15 15 15 15 14 14 14 14 13 13 13 13 13 13 13 13 13 13 13 13 14 14 14 15 15 15 15 16 16 16 16 17 17 17 17 17
20 19 18 17 17 16 15 15 15 14 14 14 14 14 14 14 13 13 13 13 13 13 13 13 13 13 13 13 14 14 14 15 15 15 15 16 16 16 16 16 16 17 17
20 19 18 17 16 16 15 15 15 14 14 14 14 14 14 14 14 13 13 13 13 13 13 13 13 13 13 13 13 14 14 14 14 14 15 15 15 16 16 16 16 16 16
Wind_Speed
9 13 12 10 9 8 7 7 7 7 7 6 6 5 5 5 5 5 5 5 5 6 6 7 6 7 7 7 7 7 7 7 6 5 4 4 4 5 5 6 5 7 8
13 14 12 10 9 8 7 7 6 6 5 5 5 4 4 3 3 3 3 3 4 4 5 5 5 6 6 6 6 6 6 6 6 5 4 2 2 4 5 6 8 7 7
13 13 12 11 9 8 8 7 6 5 4 4 4 3 3 3 3 3 3 3 4 4 4 4 4 4 5 5 5 5 6 6 6 7 7 4 3 4 5 6 7 7 7
12 13 13 11 10 9 8 7 7 6 5 4 4 4 4 3 4 4 4 4 5 4 4 3 3 4 4 4 5 5 6 6 8 10 8 1 4 6 5 5 5 5 6
13 14 13 12 10 10 9 8 7 6 5 4 3 2 2 3 4 5 5 5 5 5 4 4 3 3 3 3 4 5 6 7 9 11 9 3 7 7 5 5 4 4 4
12 14 13 12 11 9 8 7 6 5 4 3 2 1 1 2 3 4 5 6 6 6 5 4 4 4 4 4 4 4 6 7 10 10 6 4 7 7 5 4 3 3 3
11 12 12 11 10 8 7 6 5 4 3 2 1 1 2 4 5 5 6 7 7 7 6 5 5 5 5 4 4 4 5 8 10 9 6 4 7 7 5 3 3 2 3
9 10 11 11 10 9 7 6 5 3 2 2 2 3 4 5 6 6 7 8 7 8 8 7 6 6 6 5 5 5 5 8 9 8 5 5 8 7 5 3 2 2 2
7 6 7 10 9 9 9 7 4 2 1 2 3 4 6 6 7 7 8 8 8 9 9 9 8 8 8 7 5 5 5 7 9 9 7 5 9 7 5 3 3 2 2
5 4 4 5 7 7 9 8 5 3 3 3 4 6 7 9 10 10 9 8 8 9 9 9 10 10 10 8 6 5 5 7 9 9 5 5 9 7 5 4 3 3 3
5 3 5 3 4 3 2 7 4 5 6 6 6 8 8 8 7 9 8 8 9 10 10 10 11 11 11 10 9 8 7 7 8 7 3 8 9 7 5 5 4 4 4
5 3 4 3 4 3 2 4 1 1 1 3 1 2 4 6 5 4 4 8 9 10 11 11 12 12 10 8 9 9 7 8 7 7 5 9 8 6 5 5 5 5 5
5 4 4 2 3 2 2 3 1 1 1 2 4 4 4 5 4 3 2 5 8 10 8 7 9 8 7 6 5 7 7 6 5 7 5 9 8 7 6 5 6 6 6
6 4 4 3 3 4 4 2 1 1 1 1 2 5 3 1 3 2 1 1 2 3 3 3 3 5 5 7 7 6 6 4 5 5 6 9 9 7 6 6 7 7 7
6 5 5 4 6 5 3 2 2 2 1 1 3 3 3 2 3 3 2 1 2 1 1 1 3 3 4 4 5 5 5 5 6 6 5 9 10 9 7 7 8 8 8
6 5 6 4 4 3 3 3 3 2 0 2 3 4 4 3 2 3 4 3 2 2 2 2 3 2 3 4 4 4 4 4 5 5 6 9 11 11 10 9 9 9 9
6 6 7 3 3 5 6 6 3 2 3 3 3 5 6 4 3 2 3 4 3 4 3 2 3 1 2 3 3 4 4 3 3 4 6 7 10 11 12 11 11 10 9
5 6 7 3 4 5 4 3 3 3 3 2 3 6 8 8 7 3 4 4 4 4 3 2 2 2 2 2 2 3 3 3 4 5 5 5 7 9 12 13 13 11 10
5 6 7 6 2 4 3 1 0 2 1 1 4 5 7 9 9 4 3 3 4 3 3 4 2 1 2 2 3 3 3 3 4 5 4 4 5 8 10 13 14 13 12
4 5 8 6 2 4 2 1 2 2 2 2 3 4 5 5 7 5 4 3 3 3 4 4 4 3 2 3 4 3 3 3 3 3 4 3 2 4 7 11 11 12 13
6 4 8 5 4 4 3 1 2 2 2 2 2 4 3 4 6 4 4 5 4 3 4 4 3 3 3 2 2 2 2 3 3 3 2 2 2 1 3 8 10 10 11
7 5 6 6 5 5 3 1 1 1 1 1 1 2 3 5 5 6 5 5 4 3 3 4 4 2 3 2 1 1 1 1 1 3 2 2 2 1 2 4 5 7 9
7 7 5 6 6 6 4 1 2 1 2 1 1 2 1 1 3 4 5 5 4 3 3 3 4 3 2 3 2 1 1 1 1 1 2 2 2 1 1 0 2 3 8
8 7 7 7 6 6 4 3 1 1 1 1 1 1 1 2 2 2 4 4 4 3 3 4 4 3 3 3 3 2 1 0 0 1 1 1 1 2 1 1 1 1 3
9 8 6 7 6 5 4 5 2 1 1 1 1 1 1 2 1 1 2 4 4 3 3 4 3 3 2 2 2 2 2 2 1 1 1 1 1 1 1 1 1 1 2
9 8 7 7 6 6 3 3 4 2 0 1 1 0 2 1 1 2 1 3 3 4 4 4 4 3 2 2 2 2 2 2 2 1 1 1 1 1 1 2 2 2 2
Wind_Direction
109 112 114 108 103 100 97 93 85 78 76 75 74 70 62 52 43 33 23 15 14 17 19 19 24 27 29 28 27 25 23 22 21 20 25 46 60 61 53 42 52 80 72
110 111 107 102 96 92 91 93 91 84 76 71 66 61 51 37 30 20 13 7 2 7 9 11 14 18 22 21 18 15 13 9 1 346 336 344 89 80 62 50 61 79 75
107 111 103 97 93 90 88 88 87 83 78 70 60 54 39 13 355 352 353 345 341 342 345 353 359 5 9 8 6 4 1 354 337 322 308 281 153 102 79 63 72 79 77
104 103 98 94 89 86 86 84 81 80 77 70 62 49 38 15 351 335 332 330 325 326 328 332 336 344 351 353 354 352 348 339 323 314 306 295 117 108 92 73 71 79 79
95 96 95 93 89 86 83 82 80 78 74 72 65 47 26 8 342 328 325 321 319 321 323 322 317 317 320 332 340 340 335 326 317 306 299 75 99 112 96 78 68 76 83
101 99 99 95 91 88 84 81 80 75 66 63 50 11 315 304 303 303 301 297 293 293 294 299 291 292 294 296 313 324 321 315 310 304 302 97 109 115 103 86 75 82 91
110 112 114 111 106 98 89 79 70 63 54 46 17 320 289 275 269 273 275 275 274 272 277 285 284 281 283 289 293 303 309 305 293 295 295 120 124 126 111 94 90 98 102
111 119 127 131 128 122 108 92 75 55 24 346 320 295 280 272 264 257 259 262 264 266 266 269 272 273 275 281 287 292 302 299 300 310 297 142 134 129 122 112 112 118 122
101 111 129 144 140 138 130 118 108 89 11 314 291 283 279 273 265 257 252 253 257 260 262 260 258 259 260 262 271 285 292 293 294 288 290 134 136 135 136 136 138 139 139
114 111 110 118 118 135 147 143 152 174 213 246 255 262 268 270 262 252 247 240 247 254 256 258 257 255 252 248 248 257 268 276 272 276 276 144 142 143 148 153 157 163 162
120 124 116 103 96 97 164 133 172 199 211 240 242 243 261 266 258 239 229 226 239 248 252 256 254 250 248 242 236 239 249 252 265 273 256 146 143 147 155 163 175 175 172
138 121 104 108 115 120 48 96 81 81 174 256 328 276 268 282 282 275 209 227 238 246 250 251 252 248 243 235 230 229 235 247 257 262 220 156 143 153 163 176 187 184 177
115 91 78 72 116 109 102 69 25 16 5 1 17 344 327 326 320 299 216 219 230 238 236 240 239 237 226 218 218 215 226 240 254 260 203 161 155 165 172 182 188 188 183
102 89 68 22 44 65 64 13 250 91 52 22 23 1 0 341 321 336 316 285 261 243 207 222 228 237 229 221 219 221 225 231 246 245 192 177 172 179 182 190 188 188 187
116 119 90 42 35 40 73 281 9 63 37 35 51 356 5 351 338 338 305 289 290 305 267 270 249 240 233 235 226 221 221 223 235 240 201 189 185 190 194 196 192 187 190
130 127 103 68 50 23 36 21 33 10 80 45 47 7 22 17 337 326 322 333 329 316 289 277 266 253 236 236 239 229 231 235 237 237 212 202 197 198 196 198 195 190 191
132 120 107 105 75 54 37 9 1 351 38 41 34 14 17 14 347 347 346 349 335 321 319 307 297 289 264 258 251 238 224 228 247 249 230 204 196 201 199 197 195 193 193
124 113 108 87 74 79 65 0 342 24 36 19 25 34 12 3 1 8 357 345 325 328 327 303 279 299 289 277 267 255 230 211 239 255 245 222 196 190 194 196 193 193 194
120 120 117 97 72 88 84 235 37 43 44 19 47 46 13 358 2 7 342 329 344 342 337 321 348 318 300 292 266 241 234 213 218 248 255 246 211 180 180 192 193 193 194
133 131 114 117 121 93 92 355 63 61 5 40 60 59 19 349 3 353 328 354 358 354 342 336 335 321 294 277 279 266 225 218 206 235 256 264 236 193 178 182 185 194 197
156 145 122 132 127 107 79 27 32 43 357 51 56 64 7 2 3 342 351 348 356 353 346 339 335 331 313 289 309 299 264 212 198 214 241 268 275 244 212 179 181 185 192
157 147 137 135 113 103 100 50 142 80 308 99 69 80 32 19 7 352 360 347 349 339 352 346 346 347 325 331 341 323 313 291 251 207 204 223 243 232 222 189 188 183 182
158 152 146 127 132 119 130 89 30 13 287 52 48 80 53 43 22 2 341 340 338 352 357 342 5 358 333 329 5 11 17 296 303 286 220 208 223 213 235 223 216 191 174
159 151 149 136 125 123 133 103 12 290 47 64 35 86 300 100 59 18 339 337 340 358 2 355 15 347 347 343 339 338 325 344 336 316 309 274 233 204 209 246 243 165 131
151 145 142 132 129 128 128 133 225 333 26 34 15 59 336 123 151 98 4 340 341 2 14 8 4 359 5 4 343 331 343 354 343 46 317 317 314 272 205 208 222 109 118
137 139 140 138 136 136 156 175 199 159 228 279 287 37 309 214 141 95 32 336 350 17 15 4 347 353 7 14 357 357 8 12 6 24 352 331 305 285 249 216 191 171 155
Height
1513 1512 1513 1514 1515 1516 1517 1518 1519 1520 1521 1523 1523 1524 1525 1526 1526 1527 1527 1528 1528 1528 1528 1528 1528 1528 1528 1528 1528 1528 1528 1528 1529 1529 1529 1529 1528 1529 1528 1528 1528 1528 1528
1512 1513 1514 1515 1515 1516 1517 1518 1519 1521 1522 1522 1523 1524 1525 1526 1526 1527 1528 1528 1528 1529 1529 1529 1529 1529 1529 1529 1529 1529 1529 1529 1529 1530 1530 1529 1529 1529 1529 1529 1529 1529 1529
1513 1513 1514 1515 1516 1517 1518 1518 1519 1520 1521 1522 1523 1524 1524 1525 1526 1527 1527 1527 1528 1528 1528 1529 1528 1528 1529 1529 1529 1529 1529 1529 1530 1530 1530 1530 1530 1530 1530 1530 1530 1529 1529
1514 1514 1514 1515 1516 1517 1517 1518 1519 1520 1521 1521 1522 1523 1523 1524 1525 1526 1526 1527 1527 1528 1528 1528 1528 1528 1528 1529 1529 1529 1529 1529 1530 1531 1530 1530 1530 1530 1531 1530 1530 1530 1530
1514 1514 1515 1515 1516 1517 1517 1518 1518 1519 1520 1520 1521 1522 1522 1523 1523 1524 1525 1525 1526 1526 1527 1527 1527 1527 1527 1528 1528 1528 1529 1529 1530 1531 1531 1531 1531 1531 1531 1531 1531 1531 1531
1515 1515 1516 1516 1516 1516 1517 1517 1518 1518 1518 1519 1519 1520 1520 1521 1521 1522 1523 1523 1524 1525 1525 1525 1525 1526 1526 1527 1527 1527 1528 1529 1530 1530 1531 1531 1530 1531 1531 1531 1531 1531 1531
1516 1516 1516 1516 1516 1516 1516 1516 1517 1517 1517 1517 1517 1518 1518 1518 1519 1520 1520 1521 1522 1522 1523 1523 1523 1524 1525 1525 1525 1526 1527 1528 1529 1529 1530 1530 1530 1531 1531 1531 1531 1531 1532
1517 1517 1516 1516 1516 1516 1516 1516 1516 1516 1515 1516 1516 1516 1516 1516 1516 1517 1517 1518 1519 1520 1520 1521 1521 1521 1522 1523 1523 1524 1525 1527 1527 1528 1529 1529 1530 1530 1530 1531 1531 1531 1532
1518 1518 1517 1517 1516 1516 1516 1515 1515 1515 1514 1514 1514 1514 1514 1514 1514 1514 1515 1515 1516 1517 1517 1518 1519 1519 1519 1520 1521 1522 1523 1524 1525 1527 1528 1528 1529 1529 1530 1530 1531 1531 1532
1518 1518 1518 1518 1517 1516 1515 1515 1515 1514 1513 1513 1513 1513 1512 1512 1512 1512 1513 1513 1514 1514 1515 1515 1516 1516 1517 1518 1518 1519 1521 1522 1523 1525 1526 1526 1527 1528 1529 1529 1530 1531 1531
1518 1518 1518 1518 1518 1517 1517 1516 1515 1514 1513 1512 1512 1512 1511 1511 1511 1511 1511 1511 1511 1511 1512 1512 1513 1513 1514 1515 1516 1517 1518 1520 1521 1522 1524 1525 1526 1527 1528 1528 1529 1530 1531
1518 1518 1518 1518 1517 1517 1517 1516 1515 1514 1513 1513 1512 1512 1511 1511 1511 1511 1510 1510 1510 1509 1509 1510 1510 1510 1511 1512 1513 1514 1515 1517 1518 1520 1522 1523 1524 1525 1526 1527 1528 1529 1530
1518 1518 1518 1518 1517 1517 1516 1516 1515 1514 1513 1513 1512 1511 1511 1510 1510 1510 1509 1509 1508 1508 1508 1507 1507 1508 1508 1509 1510 1511 1512 1514 1516 1518 1520 1521 1522 1523 1525 1526 1527 1528 1529
1517 1518 1518 1518 1517 1517 1516 1515 1515 1514 1513 1512 1512 1511 1510 1509 1509 1509 1508 1508 1508 1507 1507 1506 1506 1506 1506 1507 1507 1508 1510 1511 1513 1515 1517 1519 1520 1522 1523 1524 1525 1527 1528
1516 1517 1517 1517 1516 1516 1515 1514 1515 1514 1513 1512 1511 1510 1509 1509 1508 1507 1507 1507 1506 1506 1505 1505 1505 1505 1505 1505 1505 1506 1507 1509 1511 1512 1514 1516 1518 1519 1520 1522 1524 1525 1527
1515 1516 1515 1516 1516 1515 1515 1514 1513 1513 1513 1512 1510 1510 1509 1508 1507 1506 1506 1505 1505 1504 1504 1504 1503 1503 1503 1503 1503 1504 1505 1507 1508 1510 1511 1513 1515 1517 1518 1520 1522 1524 1525
1514 1514 1514 1515 1515 1514 1513 1513 1513 1513 1512 1511 1510 1510 1509 1508 1507 1506 1505 1504 1503 1503 1502 1502 1502 1501 1501 1501 1501 1502 1503 1504 1505 1507 1508 1511 1513 1514 1516 1518 1520 1522 1524
1513 1513 1513 1514 1514 1513 1512 1512 1512 1511 1511 1510 1510 1509 1508 1507 1506 1505 1503 1503 1502 1502 1501 1501 1500 1500 1500 1499 1500 1500 1501 1502 1503 1504 1506 1508 1510 1512 1514 1516 1518 1520 1522
1512 1512 1512 1512 1513 1512 1511 1511 1511 1511 1510 1510 1509 1508 1507 1506 1505 1504 1503 1502 1501 1500 1500 1499 1499 1498 1498 1498 1498 1499 1499 1500 1501 1502 1504 1506 1508 1510 1512 1514 1516 1518 1520
1511 1511 1511 1511 1512 1511 1511 1511 1510 1510 1510 1509 1508 1507 1506 1505 1504 1503 1502 1501 1500 1499 1498 1498 1497 1497 1497 1497 1497 1498 1498 1499 1500 1501 1502 1504 1506 1508 1510 1512 1514 1516 1518
1509 1510 1510 1510 1511 1510 1510 1510 1510 1509 1509 1508 1508 1506 1505 1505 1503 1503 1501 1500 1499 1498 1498 1497 1496 1496 1496 1497 1497 1497 1497 1497 1498 1499 1500 1502 1504 1506 1507 1510 1512 1514 1516
1507 1508 1509 1509 1509 1509 1509 1509 1509 1508 1508 1508 1507 1506 1505 1504 1503 1502 1501 1500 1499 1498 1497 1497 1496 1495 1495 1496 1496 1496 1496 1498 1498 1498 1499 1500 1502 1503 1505 1508 1510 1512 1514
1505 1506 1507 1508 1508 1508 1508 1508 1508 1508 1507 1507 1507 1506 1504 1503 1502 1501 1500 1499 1499 1498 1497 1496 1496 1495 1495 1495 1496 1497 1497 1497 1497 1498 1498 1499 1500 1502 1504 1506 1507 1510 1512
1502 1504 1506 1506 1507 1506 1507 1507 1507 1507 1507 1506 1506 1505 1504 1503 1502 1501 1500 1499 1498 1497 1497 1496 1496 1495 1495 1495 1495 1496 1497 1497 1497 1497 1498 1498 1499 1501 1502 1504 1506 1508 1510
1499 1502 1504 1504 1505 1505 1505 1505 1506 1506 1506 1506 1505 1505 1504 1503 1502 1501 1500 1499 1498 1497 1496 1496 1495 1495 1495 1495 1495 1495 1496 1496 1497 1497 1497 1498 1499 1500 1501 1502 1504 1506 1508
1497 1499 1501 1502 1503 1503 1504 1504 1504 1505 1505 1505 1504 1504 1504 1503 1502 1501 1500 1499 1498 1497 1496 1495 1495 1495 1495 1495 1495 1495 1495 1496 1496 1497 1497 1497 1498 1499 1500 1501 1502 1504 1506